Regional Weather Roundup
Issued by NWS

Home | Current Version | Previous Version | Graphics & Text | Print | Product List | Glossary On
Versions: 1 2 3 4 5 6 7 8 9 10 11 12 13 14 15 16 17 18 19 20 21 22 23 24 25 26 27
000
ASUS45 KCYS 221410
RWRWY

WYOMING REGIONAL WEATHER ROUNDUP
NATIONAL WEATHER SERVICE CHEYENNE WY
700 AM MST MON JAN 22 2018

NOTE:  "FAIR" INDICATES FEW OR NO CLOUDS BELOW 12,000 FEET
WITH NO SIGNIFICANT WEATHER AND/OR OBSTRUCTIONS TO VISIBILITY.

WYZ001-221500-
YELLOWSTONE NATIONAL PARK

CITY           SKY/WX    TMP DP  RH WIND       PRES   REMARKS
LK YELLOWSTONE   N/A      6   4  91 CALM      30.13F
W YELLOWSTONE  NOT AVBL

$$
WYZ002>013-054>058-071-098>099-221500-
NORTHERN WYOMING

CITY           SKY/WX    TMP DP  RH WIND       PRES   REMARKS
JACKSON        FLURRIES  -1  -5  82 N7        30.21S WCI -14
CODY           FAIR      23   9  55 N6        30.04R WCI  16
GREYBULL       FAIR       3   0  87 SW6       30.11R WCI  -8
WORLAND        FAIR      -5  -8  87 CALM      30.09S
SHERIDAN       FAIR       9   2  73 S5        29.99S WCI   1
BUFFALO        FAIR      22   1  40 W8        29.98S WCI  12
GILLETTE       FAIR      18  10  71 W10       29.99R WCI   6
HULETT         FAIR      14  10  85 MISG      30.00S
NEWCASTLE      FAIR      16   9  73 N12       30.00R WCI   3

$$
WYZ014>020-022>026-101>103-221500-
CENTRAL WYOMING

CITY           SKY/WX    TMP DP  RH WIND       PRES   REMARKS
BIG PINEY      FAIR      -6 -10  83 S7        30.13F WCI -20
PINEDALE       FAIR       5  -4  66 NW12      30.11S WCI -11
DUBOIS         FAIR      14   3  62 NW21      30.04F WCI  -4
LANDER         FAIR       3  -4  72 CALM      30.04S
RIVERTON       FAIR       2  -4  76 SW7       30.06S WCI -11
CASPER         FAIR      12   5  73 SW20G28   30.06R WCI  -6
DOUGLAS        FAIR       7   2  80 NW7       30.02R WCI  -5

$$
WYZ021-027>030-104>119-221500-
SOUTHERN WYOMING

CITY           SKY/WX    TMP DP  RH WIND       PRES   REMARKS
EVANSTON       FAIR       8   5  87 SW14      30.18S WCI  -8
FORT BRIDGER   FAIR      14   7  73 SW13      30.20S WCI   0
ROCK SPRINGS   FAIR       6   2  83 SW20      30.16R WCI -14
DIXON            N/A     -2  -7  82 CALM      30.24R
RAWLINS        FAIR      12   5  73 VRB7      30.09R WCI   1
SARATOGA       FAIR      -4  -6  92 SE5       30.13R WCI -15
LARAMIE        FAIR       0  -3  87 NE8       30.00R WCI -14
CHEYENNE       FAIR      19   6  57 NW13G22   29.96R WCI   6
TORRINGTON     FAIR      13   6  74 NW15      30.00S WCI  -3

$$




USA.gov is the U.S. government's official web portal to all federal, state and local government web resources and services.